Visibility
15.0 15.0 15.0 15.0 15.0 15.0 15.0 15.0 15.0 15.0 15.0 15.0 14.8 15.0 15.0 15.0 15.0 15.0 15.0 14.9 14.6 5.0 15.0 8.7 1.3 0.2 12.3 15.0 15.0 3.0 6.5 0.1 0.2 15.0 0.1 0.2 0.1 0.1 0.1 0.1 0.1 3.8 15.0 0.3
15.0 15.0 15.0 15.0 15.0 15.0 15.0 15.0 15.0 15.0 15.0 13.6 4.5 15.0 15.0 15.0 15.0 15.0 15.0 14.3 15.0 15.0 14.4 0.3 4.3 15.0 15.0 15.0 15.0 0.1 0.2 0.2 0.3 14.1 0.1 2.5 0.1 0.1 0.1 0.1 0.1 0.1 1.0 0.2
15.0 15.0 15.0 15.0 15.0 15.0 15.0 15.0 15.0 15.0 15.0 12.5 15.0 14.3 15.0 15.0 15.0 15.0 15.0 3.4 15.0 15.0 12.7 10.5 15.0 15.0 15.0 15.0 15.0 15.0 7.1 0.3 0.3 0.1 0.1 0.1 0.2 0.4 0.1 0.1 0.1 0.1 0.1 0.1
15.0 15.0 15.0 15.0 15.0 15.0 15.0 15.0 11.3 14.2 15.0 15.0 15.0 15.0 15.0 15.0 15.0 15.0 15.0 15.0 13.2 0.2 0.8 10.7 7.8 15.0 15.0 15.0 15.0 15.0 0.8 0.2 0.3 0.1 0.1 0.3 0.5 0.3 0.5 0.1 0.1 0.1 0.1 0.1
15.0 15.0 15.0 15.0 15.0 15.0 15.0 14.1 15.0 15.0 5.7 15.0 15.0 14.9 15.0 8.1 14.9 8.5 14.9 7.5 10.4 5.9 0.3 0.1 0.1 0.1 3.1 1.8 11.3 15.0 9.7 0.2 0.7 0.1 0.1 4.9 15.0 9.5 10.2 7.2 0.1 0.1 0.1 0.1
15.0 15.0 15.0 15.0 15.0 15.0 15.0 15.0 15.0 15.0 12.3 15.0 15.0 15.0 15.0 15.0 15.0 15.0 15.0 6.0 1.9 4.0 12.1 3.9 1.1 0.1 1.9 1.1 0.2 15.0 2.1 0.3 0.2 0.1 0.1 0.1 5.4 0.1 0.1 0.2 0.1 0.1 0.1 0.1
15.0 15.0 15.0 15.0 15.0 15.0 15.0 15.0 15.0 15.0 15.0 15.0 15.0 15.0 15.0 15.0 15.0 6.3 13.6 15.0 1.9 14.9 15.0 15.0 4.9 2.0 2.0 2.2 3.1 15.0 15.0 0.4 0.2 0.2 0.1 0.3 0.1 0.1 0.1 0.1 0.1 0.1 0.1 0.1
15.0 15.0 15.0 15.0 15.0 15.0 15.0 6.6 15.0 15.0 15.0 14.5 15.0 15.0 9.8 15.0 6.9 15.0 4.3 15.0 15.0 15.0 7.9 15.0 15.0 15.0 15.0 15.0 15.0 15.0 15.0 10.8 0.3 1.7 0.2 0.2 0.3 0.2 0.1 0.1 0.2 13.8 12.2 4.6
15.0 15.0 15.0 15.0 15.0 15.0 15.0 4.7 8.4 15.0 15.0 15.0 15.0 4.4 7.0 9.6 4.1 15.0 15.0 15.0 15.0 15.0 6.7 15.0 15.0 15.0 14.9 15.0 15.0 15.0 15.0 15.0 15.0 15.0 5.6 1.4 15.0 15.0 15.0 6.1 14.4 15.0 15.0 15.0
15.0 15.0 15.0 15.0 15.0 15.0 15.0 15.0 4.3 15.0 15.0 15.0 15.0 15.0 15.0 15.0 15.0 4.3 15.0 15.0 15.0 15.0 15.0 15.0 15.0 15.0 15.0 15.0 1.6 10.8 15.0 15.0 15.0 15.0 15.0 15.0 15.0 15.0 15.0 15.0 15.0 15.0 15.0 15.0
15.0 15.0 15.0 15.0 15.0 15.0 15.0 15.0 7.5 15.0 15.0 15.0 15.0 15.0 15.0 15.0 15.0 15.0 15.0 15.0 15.0 15.0 15.0 15.0 15.0 15.0 15.0 15.0 3.5 0.3 0.6 10.6 10.7 14.1 15.0 10.0 15.0 15.0 15.0 15.0 15.0 15.0 15.0 15.0
15.0 15.0 15.0 15.0 15.0 15.0 15.0 15.0 8.0 15.0 15.0 15.0 15.0 15.0 15.0 15.0 15.0 13.7 8.4 15.0 15.0 14.4 14.0 14.6 15.0 15.0 15.0 14.6 1.0 13.8 0.2 0.1 0.2 1.1 13.4 15.0 15.0 15.0 15.0 15.0 15.0 15.0 15.0 15.0
15.0 15.0 15.0 15.0 15.0 15.0 15.0 15.0 14.5 15.0 14.9 8.6 15.0 15.0 15.0 15.0 15.0 15.0 15.0 15.0 14.5 15.0 15.0 14.3 15.0 15.0 15.0 4.8 0.7 2.3 12.2 2.9 1.2 3.6 15.0 15.0 15.0 15.0 15.0 15.0 15.0 15.0 15.0 15.0
15.0 15.0 15.0 15.0 15.0 15.0 15.0 15.0 14.2 15.0 14.9 15.0 15.0 15.0 15.0 15.0 15.0 15.0 15.0 15.0 15.0 15.0 13.3 15.0 15.0 15.0 15.0 9.1 4.1 0.5 0.2 1.2 3.6 5.3 15.0 10.0 15.0 15.0 12.9 15.0 15.0 5.0 15.0 15.0
15.0 15.0 15.0 15.0 15.0 15.0 15.0 15.0 15.0 15.0 15.0 15.0 15.0 15.0 15.0 15.0 15.0 15.0 15.0 15.0 15.0 5.1 15.0 15.0 15.0 15.0 15.0 15.0 2.6 0.2 1.8 0.1 0.1 0.2 15.0 0.1 2.9 15.0 15.0 0.8 2.0 2.2 0.2 1.7
15.0 15.0 15.0 15.0 15.0 15.0 15.0 15.0 15.0 15.0 15.0 15.0 15.0 15.0 15.0 15.0 15.0 15.0 15.0 15.0 14.9 13.9 15.0 11.0 12.3 15.0 9.6 15.0 3.0 1.4 15.0 0.1 0.1 0.1 0.2 1.0 14.6 15.0 11.6 0.4 3.3 15.0 1.0 2.3
15.0 15.0 15.0 15.0 15.0 15.0 15.0 15.0 15.0 15.0 15.0 15.0 15.0 15.0 15.0 15.0 15.0 15.0 15.0 15.0 14.5 14.3 12.2 15.0 15.0 13.0 12.7 3.1 0.3 15.0 7.1 15.0 4.9 0.8 0.3 6.5 13.0 0.8 15.0 3.8 10.5 14.2 14.7 15.0
15.0 15.0 15.0 15.0 15.0 15.0 15.0 15.0 15.0 15.0 15.0 15.0 15.0 15.0 15.0 15.0 15.0 15.0 15.0 15.0 15.0 15.0 14.4 13.9 15.0 10.7 15.0 1.1 8.3 15.0 13.4 8.8 15.0 5.8 15.0 9.4 13.1 15.0 14.4 15.0 3.3 0.7 11.6 15.0
15.0 15.0 15.0 15.0 15.0 15.0 15.0 15.0 15.0 15.0 15.0 15.0 15.0 8.7 9.1 15.0 15.0 10.8 15.0 14.6 15.0 15.0 14.8 15.0 8.8 1.1 0.2 0.5 1.4 2.0 1.4 0.5 0.3 4.5 15.0 15.0 15.0 15.0 14.3 8.5 10.0 1.3 2.6 1.1
15.0 15.0 15.0 15.0 15.0 15.0 15.0 15.0 15.0 15.0 15.0 15.0 15.0 15.0 14.9 15.0 15.0 14.7 15.0 15.0 15.0 15.0 15.0 15.0 12.2 0.7 0.2 4.0 15.0 15.0 15.0 15.0 4.1 0.4 0.8 0.6 2.4 4.1 2.3 1.6 1.9 0.9 0.6 0.8
15.0 15.0 15.0 15.0 15.0 15.0 15.0 15.0 15.0 15.0 15.0 11.8 6.2 8.5 0.8 15.0 8.9 3.7 1.5 10.3 14.4 15.0 15.0 15.0 7.0 0.4 3.0 15.0 15.0 15.0 15.0 15.0 10.5 9.7 1.2 1.0 0.6 0.3 0.3 1.2 4.6 3.3 1.9 1.1
15.0 15.0 15.0 15.0 15.0 15.0 15.0 13.3 15.0 15.0 2.7 8.2 4.0 1.3 13.2 15.0 15.0 1.1 14.6 7.2 15.0 15.0 15.0 10.4 1.9 5.8 15.0 15.0 15.0 15.0 15.0 15.0 13.4 14.8 1.1 2.3 3.6 1.2 0.4 0.4 0.5 1.5 3.2 3.1
15.0 15.0 15.0 15.0 15.0 15.0 15.0 9.4 15.0 15.0 7.4 7.8 0.5 1.2 5.6 13.9 14.9 7.2 2.0 13.3 6.0 15.0 15.0 15.0 13.0 15.0 15.0 15.0 15.0 8.3 15.0 15.0 15.0 9.5 8.8 14.9 12.8 4.8 10.7 1.7 3.7 0.2 12.2 7.8
15.0 15.0 15.0 15.0 15.0 15.0 15.0 6.2 15.0 15.0 12.5 1.5 0.7 1.3 3.9 14.7 12.3 1.5 14.2 15.0 13.8 14.2 13.8 15.0 15.0 15.0 15.0 15.0 15.0 7.5 0.8 15.0 6.0 0.8 1.5 3.1 1.8 0.6 7.2 12.7 15.0 2.0 15.0 15.0
15.0 15.0 15.0 15.0 15.0 15.0 12.5 8.4 8.6 15.0 14.6 0.6 5.5 14.3 1.1 11.2 13.7 15.0 15.0 15.0 15.0 6.8 10.1 15.0 15.0 15.0 15.0 15.0 8.8 2.6 5.8 2.4 0.8 0.5 1.3 0.7 1.3 0.8 0.6 4.6 0.4 14.0 15.0 15.0
15.0 15.0 15.0 15.0 15.0 15.0 15.0 15.0 15.0 6.9 6.2 0.7 1.1 4.5 15.0 13.1 2.3 15.0 3.3 8.2 14.3 15.0 7.5 8.7 15.0 15.0 15.0 3.4 14.0 15.0 1.3 0.2 1.2 1.3 0.6 1.2 2.0 1.3 0.8 11.3 0.7 15.0 15.0 15.0
15.0 15.0 8.0 10.7 15.0 15.0 15.0 15.0 15.0 15.0 13.4 2.6 9.7 15.0 4.2 5.3 15.0 15.0 15.0 14.1 5.4 0.4 1.1 15.0 15.0 15.0 4.5 15.0 15.0 3.5 0.8 2.8 1.4 2.3 5.0 6.2 15.0 5.6 1.4 0.6 15.0 7.1 15.0 0.3